FENGYUN 4C

Last updated on Mon Sep 07 2026 00:03:03 GMT+0000 (Coordinated Universal Time)

1 67246U 25312A 26249.51225435 -.00000339 00000+0 00000+0 0 9992 2 67246 0.0175 324.6569 0000935 294.9921 43.3634 1.00269643 2688
UTC large
Height (km)
Speed (km/s)
/
Latitude / Longitude
Inclination (degrees)
Orbital Period (minutes)
Azimuth
Elevation
Range (km)
Doppler Factor

Next 0 passes for location: London (51.5072 / 0.1276)

No passes found over London.
FENGYUN 4C